Regional Weather Roundup
Issued by NWS

Home | Current Version | Previous Version | Graphics & Text | Print | Product List | Glossary Off
Versions: 1 2 3 4 5 6 7 8 9 10 11 12 13 14 15 16 17 18 19 20 21 22 23 24 25 26 27 28 29 30 31 32 33 34 35 36 37 38 39 40 41 42 43 44 45 46 47 48 49 50

000
ASUS43 KFSD 201010
RWRSD

WEATHER ROUNDUP FOR SOUTH DAKOTA
NATIONAL WEATHER SERVICE SIOUX FALLS SD
500 AM CDT FRI OCT 20 2017

NOTE: "FAIR" INDICATES FEW OR NO CLOUDS BELOW 12,000 FEET WITH NO
SIGNIFICANT WEATHER AND/OR OBSTRUCTIONS TO VISIBILITY.


SDZ001>005-009-010-012>017-201100-
NORTHWEST AND NORTH CENTRAL SOUTH DAKOTA

CITY           SKY/WX    TMP DP  RH WIND       PRES   REMARKS
BUFFALO          N/A     54  24  31 SW8       29.46F
MOBRIDGE       CLEAR     58  49  72 SE12      29.54F
$$

SDZ012>016-024>037-041>051-057-063-072>074-201100-
SOUTHWEST AND SOUTH CENTRAL SOUTH DAKOTA

CITY           SKY/WX    TMP DP  RH WIND       PRES   REMARKS
RAPID CTY ARPT PTCLDY    49  28  44 SE6       29.60F
PIERRE         CLEAR     56  47  71 SE7       29.61F
CUSTER         CLEAR     55  23  28 SW6       29.74F
ELLSWORTH AFB  MOCLDY    53  27  36 SE6       29.59F
PHILIP         CLEAR     60  45  57 S9        29.59F
PINE RIDGE     CLEAR     57  44  62 SW12      29.68F
SPEARFISH      FAIR      72  30  21 SW25G33   29.58F
WINNER         FAIR      64  44  48 S23G33    29.68F
$$

SDZ004>011-016>023-039-040-201100-
NORTHEAST SOUTH DAKOTA

CITY           SKY/WX    TMP DP  RH WIND       PRES   REMARKS
ABERDEEN       CLEAR     56  49  77 S15       29.66F
WATERTOWN      FAIR      54  49  83 S13       29.75F
BROOKINGS      FAIR      54  48  80 S13       29.80F
SISSETON         N/A     66  48  52 S17       29.67
$$

SDZ017-020-022-023-036>040-048>070-201100-
SOUTHEAST SOUTH DAKOTA

CITY           SKY/WX    TMP DP  RH WIND       PRES   REMARKS
SIOUX FALLS    FAIR      58  49  72 S12       29.83F
HURON          PTCLDY    58  48  69 S15G26    29.71F
CHAMBERLAIN    CLEAR     60  46  60 S3        29.69F
MITCHELL       CLEAR     57  47  69 S14       29.75F
YANKTON        FAIR      59  47  64 SE6       29.83F
$$

ABBREVIATIONS USED IN REMARKS
   TC - TEMPERATURE IN CELSIUS
  WCI - WIND CHILL INDEX
   HX - HEAT INDEX
  VSB - VISIBILITY





USA.gov is the U.S. government's official web portal to all federal, state and local government web resources and services.